AFL1905 UNNT-KMIA

Flight info

Callsign AFL1905
Flight time N/A
Altitude 34000
Route DIMID1K DIMID R484 SOREB W143 NOLBI/K0924F350 T660 DOSON/K0915F360 N612 KELIM/M085F360 DCT 88N000E 88N020W 87N040W DCT PELRI/N0497F380 DCT ELNUS DCT 76N080W 67N090W DCT YYQ J89 YGX/N0491F390 J89 BAE/N0494F410 J101 OBK J89 IIU/N0486F400 Q139 HITMN/N0481F410 Q19 BULZI Q81 ENDEW DCT PIE PALMZ2
Aircraft A359/H-SDE2E3GHIJ3J4J5LM1ORWXY/LB1D1

Departure

Time 2026-04-30 18:06
Airport Novosibirsk Tolmachevo Airport (UNNT)

Arrival

Time N/A
Airport Miami International Airport (KMIA)
Time Latitude Longitude Altitude Speed Heading
2026-04-30 17:44 55.01040 82.66755 381 ft 0 kts 171°
2026-04-30 17:56 55.01054 82.66752 381 ft 3 kts 172°
2026-04-30 17:57 55.01094 82.66750 381 ft 0 kts 175°
2026-04-30 17:58 55.01115 82.66748 381 ft 3 kts 175°
2026-04-30 17:59 55.01155 82.66742 381 ft 0 kts 175°
2026-04-30 18:02 55.01145 82.66744 381 ft 4 kts 175°
2026-04-30 18:02 55.01096 82.67144 381 ft 18 kts 82°
2026-04-30 18:03 55.01318 82.67667 381 ft 13 kts 31°
2026-04-30 18:04 55.01364 82.67714 380 ft 9 kts 31°
2026-04-30 18:05 55.01304 82.65746 381 ft 141 kts 261°
2026-04-30 18:06 55.00745 82.57340 2097 ft 189 kts 296°
2026-04-30 18:07 55.05211 82.59118 3423 ft 198 kts 36°
2026-04-30 18:08 55.09059 82.61557 4457 ft 199 kts
2026-04-30 18:09 55.14650 82.62259 5810 ft 205 kts
2026-04-30 18:10 55.21241 82.62759 6645 ft 270 kts
2026-04-30 18:11 55.28987 82.63442 8916 ft 284 kts
2026-04-30 18:11 55.34997 82.63965 10562 ft 299 kts 360°
2026-04-30 18:12 55.41710 82.64526 11341 ft 344 kts
2026-04-30 18:13 55.46672 82.64957 11849 ft 370 kts
2026-04-30 18:13 55.53812 82.65590 12758 ft 393 kts
2026-04-30 18:14 55.60219 82.66164 13917 ft 401 kts 360°
2026-04-30 18:15 55.68666 82.66913 15310 ft 409 kts 359°
2026-04-30 18:15 55.77285 82.67676 16763 ft 417 kts 359°
2026-04-30 18:16 55.83116 82.68194 17716 ft 422 kts 359°
2026-04-30 18:16 55.89023 82.68718 18615 ft 428 kts 358°
2026-04-30 18:17 55.92005 82.68984 19039 ft 430 kts 358°
2026-04-30 18:17 55.95006 82.69253 19460 ft 433 kts 358°
2026-04-30 18:17 56.01016 82.69792 20324 ft 437 kts 358°
2026-04-30 18:18 56.04059 82.69950 20763 ft 437 kts 354°
2026-04-30 18:18 56.07085 82.69464 21210 ft 435 kts 346°
2026-04-30 18:18 56.10020 82.68237 21676 ft 433 kts 340°
2026-04-30 18:18 56.12902 82.66601 22120 ft 434 kts 336°
2026-04-30 18:19 56.15744 82.64753 22560 ft 436 kts 335°
2026-04-30 18:19 56.18583 82.62794 23018 ft 438 kts 334°
2026-04-30 18:19 56.21432 82.60795 23473 ft 440 kts 334°
2026-04-30 18:19 56.24289 82.58799 23880 ft 443 kts 334°
2026-04-30 18:20 56.27183 82.56796 24265 ft 445 kts 335°
2026-04-30 18:20 56.30082 82.54809 24656 ft 447 kts 335°
2026-04-30 18:20 56.32994 82.52826 25050 ft 448 kts 335°
2026-04-30 18:20 56.35912 82.50844 25446 ft 450 kts 335°
2026-04-30 18:21 56.38846 82.48852 25842 ft 451 kts 335°
2026-04-30 18:21 56.41786 82.46852 26225 ft 453 kts 335°
2026-04-30 18:21 56.44702 82.44865 26591 ft 454 kts 335°
2026-04-30 18:21 56.47701 82.42816 26965 ft 456 kts 335°
2026-04-30 18:22 56.50672 82.40783 27325 ft 457 kts 335°
2026-04-30 18:22 56.56662 82.36941 27977 ft 462 kts 339°
2026-04-30 18:22 56.59719 82.35106 28275 ft 464 kts 339°
2026-04-30 18:23 56.62777 82.33210 28579 ft 465 kts 338°
2026-04-30 18:23 56.65824 82.31239 28883 ft 465 kts 338°
2026-04-30 18:23 56.68864 82.29203 29218 ft 465 kts 337°
2026-04-30 18:23 56.71890 82.27131 29669 ft 463 kts 337°
2026-04-30 18:24 56.77873 82.22992 30490 ft 458 kts 337°
2026-04-30 18:24 56.80847 82.20931 30825 ft 456 kts 337°
2026-04-30 18:24 56.83810 82.18876 31131 ft 455 kts 337°
2026-04-30 18:25 56.86757 82.16828 31472 ft 452 kts 337°
2026-04-30 18:25 56.92620 82.12743 32050 ft 449 kts 336°
2026-04-30 18:25 56.95533 82.10706 32326 ft 447 kts 336°
2026-04-30 18:26 57.01225 82.06427 32726 ft 442 kts 330°
2026-04-30 18:26 57.03925 82.03757 33040 ft 438 kts 329°
2026-04-30 18:26 57.06585 82.01046 33335 ft 436 kts 329°
2026-04-30 18:27 57.11847 81.95574 33762 ft 434 kts 328°
2026-04-30 18:27 57.14461 81.92826 33971 ft 432 kts 328°
2026-04-30 18:28 57.19672 81.87327 34301 ft 431 kts 328°
2026-04-30 18:28 57.22274 81.84579 34412 ft 431 kts 328°
2026-04-30 18:28 57.27482 81.79076 34642 ft 431 kts 328°
2026-04-30 18:29 57.30081 81.76321 34744 ft 431 kts 328°
2026-04-30 18:29 57.37887 81.68020 35046 ft 431 kts 328°
2026-04-30 18:30 57.42208 81.63406 35192 ft 431 kts 328°
2026-04-30 18:30 57.48282 81.56897 35400 ft 431 kts 328°
2026-04-30 18:31 57.56073 81.48510 35639 ft 431 kts 328°
2026-04-30 18:32 57.61263 81.42897 35793 ft 431 kts 328°
2026-04-30 18:32 57.63823 81.40121 35859 ft 431 kts 328°
2026-04-30 18:32 57.69043 81.34444 36000 ft 431 kts 328°
2026-04-30 18:33 57.71602 81.31652 36065 ft 431 kts 327°
2026-04-30 18:33 57.76791 81.25980 36190 ft 432 kts 327°
2026-04-30 18:33 57.79382 81.23142 36247 ft 432 kts 327°
2026-04-30 18:34 57.87156 81.14596 36411 ft 432 kts 327°
2026-04-30 18:35 57.92332 81.08877 36521 ft 432 kts 327°
2026-04-30 18:35 57.97519 81.03131 36614 ft 432 kts 327°
2026-04-30 18:36 58.05292 80.94487 36733 ft 433 kts 327°
2026-04-30 18:37 58.13068 80.85791 36871 ft 433 kts 327°
2026-04-30 18:37 58.18251 80.79972 36939 ft 433 kts 327°
2026-04-30 18:38 58.23436 80.74132 37016 ft 433 kts 327°
2026-04-30 18:38 58.28589 80.68310 37078 ft 434 kts 327°
2026-04-30 18:39 58.33778 80.62428 37145 ft 434 kts 327°
2026-04-30 18:39 58.38966 80.56522 37210 ft 434 kts 326°
2026-04-30 18:40 58.44152 80.50597 37258 ft 435 kts 326°
2026-04-30 18:40 58.48494 80.45621 37307 ft 435 kts 326°
2026-04-30 18:41 58.53683 80.39660 37374 ft 435 kts 326°
2026-04-30 18:41 58.58832 80.33723 37417 ft 435 kts 326°
2026-04-30 18:42 58.64016 80.27725 37459 ft 435 kts 326°
2026-04-30 18:42 58.71786 80.18691 37527 ft 435 kts 326°
2026-04-30 18:45 58.97665 79.88081 37679 ft 437 kts 325°
2026-04-30 18:45 59.00249 79.84983 37716 ft 437 kts 325°
2026-04-30 18:46 59.05418 79.78777 37731 ft 437 kts 325°
2026-04-30 18:46 59.10598 79.72535 37750 ft 438 kts 325°
2026-04-30 18:47 59.15780 79.66276 37771 ft 438 kts 325°
2026-04-30 18:47 59.18371 79.63143 37497 ft 438 kts 324°
2026-04-30 18:47 59.20966 79.60002 36751 ft 439 kts 324°
2026-04-30 18:47 59.23519 79.56907 36315 ft 436 kts 324°
2026-04-30 18:48 59.26087 79.53787 36200 ft 434 kts 324°
2026-04-30 18:48 59.31203 79.47549 36187 ft 430 kts 324°
2026-04-30 18:49 59.36267 79.41337 36196 ft 430 kts 323°
2026-04-30 18:49 59.41360 79.35055 36199 ft 434 kts 324°
2026-04-30 18:50 59.46491 79.28725 36198 ft 437 kts 323°
2026-04-30 18:50 59.51659 79.22329 36200 ft 440 kts 323°
2026-04-30 18:51 59.56850 79.15884 36200 ft 442 kts 323°
2026-04-30 18:51 59.62063 79.09382 36201 ft 443 kts 323°
2026-04-30 18:52 59.67268 79.02859 36204 ft 443 kts 323°
2026-04-30 18:52 59.72463 78.96321 36203 ft 442 kts 323°
2026-04-30 18:53 59.77656 78.89757 36207 ft 442 kts 323°
2026-04-30 18:53 59.82843 78.83177 36207 ft 443 kts 323°
2026-04-30 18:54 59.88031 78.76573 36200 ft 443 kts 323°
2026-04-30 18:54 59.93212 78.69954 36208 ft 442 kts 322°
2026-04-30 18:55 59.98391 78.63312 36209 ft 442 kts 322°
2026-04-30 18:55 60.06110 78.53368 36210 ft 442 kts 322°
2026-04-30 18:56 60.13857 78.43330 36209 ft 442 kts 322°
2026-04-30 18:57 60.21588 78.33253 36207 ft 441 kts 322°
2026-04-30 18:57 60.26577 78.26722 36217 ft 441 kts 322°
2026-04-30 18:58 60.34289 78.16578 36218 ft 441 kts 321°
2026-04-30 18:59 60.41989 78.06391 36216 ft 440 kts 321°
2026-04-30 19:00 60.52225 77.92730 36216 ft 440 kts 321°
2026-04-30 19:01 60.62445 77.78999 36217 ft 440 kts 321°
2026-04-30 19:02 60.70317 77.69235 36218 ft 449 kts 330°
2026-04-30 19:02 60.76469 77.65845 36205 ft 469 kts 345°
2026-04-30 19:03 60.82996 77.64236 36214 ft 475 kts 347°
2026-04-30 19:04 60.96245 77.61509 36213 ft 479 kts 347°
2026-04-30 19:05 61.09460 77.58614 36213 ft 479 kts 347°
2026-04-30 19:06 61.22715 77.55646 36213 ft 479 kts 347°
2026-04-30 19:06 61.32660 77.53405 36210 ft 479 kts 347°
2026-04-30 19:07 61.42607 77.51155 36209 ft 480 kts 347°
2026-04-30 19:08 61.55886 77.48124 36215 ft 480 kts 347°
2026-04-30 19:09 61.65862 77.45833 36209 ft 481 kts 347°
2026-04-30 19:09 61.72519 77.44302 36207 ft 481 kts 347°
2026-04-30 19:10 61.85850 77.41223 36206 ft 482 kts 348°
2026-04-30 19:11 61.95856 77.38890 36204 ft 482 kts 348°
2026-04-30 19:12 62.02531 77.37326 36206 ft 483 kts 348°
2026-04-30 19:12 62.09211 77.35752 36200 ft 483 kts 348°
2026-04-30 19:13 62.22658 77.33283 36200 ft 490 kts 353°
2026-04-30 19:14 62.29500 77.33184 36202 ft 493 kts 354°
2026-04-30 19:14 62.36319 77.33031 36195 ft 493 kts 353°
2026-04-30 19:15 62.43179 77.32723 36195 ft 493 kts 353°
2026-04-30 19:15 62.53470 77.32160 36188 ft 493 kts 353°
2026-04-30 19:16 62.60338 77.31778 36187 ft 494 kts 353°
2026-04-30 19:17 62.70650 77.31215 36185 ft 495 kts 353°
2026-04-30 19:17 62.80984 77.30642 36184 ft 495 kts 353°
2026-04-30 19:18 62.91327 77.30068 36179 ft 496 kts 353°
2026-04-30 19:19 62.98227 77.29687 36172 ft 496 kts 353°
2026-04-30 19:19 63.08584 77.29109 36171 ft 497 kts 353°
2026-04-30 19:20 63.15494 77.28721 36175 ft 497 kts 353°
2026-04-30 19:21 63.25870 77.28134 36168 ft 498 kts 353°
2026-04-30 19:22 63.39692 77.27343 36164 ft 498 kts 354°
2026-04-30 19:23 63.60696 77.32421 36156 ft 513 kts
2026-04-30 19:24 63.71288 77.36129 36147 ft 514 kts
2026-04-30 19:25 63.88910 77.42253 36141 ft 514 kts
2026-04-30 19:26 64.03063 77.47227 36130 ft 515 kts
2026-04-30 19:27 64.12536 77.50586 36128 ft 515 kts
2026-04-30 19:28 64.23122 77.54367 36125 ft 516 kts
2026-04-30 19:29 64.37311 77.59474 36115 ft 516 kts
2026-04-30 19:30 64.51509 77.64641 36110 ft 516 kts
2026-04-30 19:31 64.65705 77.69869 36111 ft 516 kts
2026-04-30 19:31 64.76359 77.73824 36096 ft 517 kts
2026-04-30 19:32 64.83456 77.76479 36093 ft 517 kts
2026-04-30 19:32 64.90555 77.79147 36093 ft 517 kts
2026-04-30 19:33 64.97633 77.82311 36087 ft 518 kts 12°
2026-04-30 19:33 65.04642 77.86374 36087 ft 520 kts 13°
2026-04-30 19:34 65.11683 77.90475 36085 ft 521 kts 12°
2026-04-30 19:35 65.22208 77.96369 36082 ft 520 kts 12°
2026-04-30 19:35 65.29260 78.00288 36078 ft 520 kts 12°
2026-04-30 19:36 65.36313 78.04229 36077 ft 520 kts 12°
2026-04-30 19:36 65.46881 78.10185 36073 ft 520 kts 12°
2026-04-30 19:37 65.53924 78.14182 36068 ft 520 kts 12°
2026-04-30 19:37 65.60981 78.18210 36062 ft 521 kts 13°
2026-04-30 19:38 65.68034 78.22262 36063 ft 521 kts 13°
2026-04-30 19:38 65.75081 78.26337 36059 ft 521 kts 13°
2026-04-30 19:39 65.82130 78.30433 36058 ft 521 kts 13°
2026-04-30 19:39 65.89177 78.34551 36052 ft 521 kts 13°
2026-04-30 19:40 65.96265 78.37968 36061 ft 516 kts
2026-04-30 19:40 66.03420 78.39564 36046 ft 516 kts
2026-04-30 19:41 66.10578 78.40915 36041 ft 516 kts
2026-04-30 19:41 66.17688 78.42203 36047 ft 516 kts
2026-04-30 19:42 66.24848 78.43527 36039 ft 515 kts
2026-04-30 19:42 66.31993 78.44877 36035 ft 515 kts
2026-04-30 19:43 66.39147 78.46240 36034 ft 515 kts
2026-04-30 19:44 66.49878 78.48299 36030 ft 515 kts
2026-04-30 19:44 66.57025 78.49685 36027 ft 515 kts
2026-04-30 19:45 66.64177 78.51070 36025 ft 515 kts
2026-04-30 19:45 66.71333 78.52464 36019 ft 515 kts
2026-04-30 19:46 66.78485 78.53864 36019 ft 515 kts
2026-04-30 19:46 66.85595 78.55269 36016 ft 515 kts
2026-04-30 19:47 66.92750 78.56696 36009 ft 515 kts
2026-04-30 19:47 66.99902 78.58127 36008 ft 515 kts
2026-04-30 19:48 67.07054 78.59592 36009 ft 515 kts
2026-04-30 19:48 67.14188 78.61524 36002 ft 516 kts
2026-04-30 19:49 67.21322 78.63630 36002 ft 516 kts
2026-04-30 19:49 67.32018 78.66696 35997 ft 516 kts
2026-04-30 19:50 67.39107 78.68693 35995 ft 515 kts
2026-04-30 19:50 67.46237 78.70708 35996 ft 515 kts
2026-04-30 19:51 67.53376 78.72516 35988 ft 515 kts
2026-04-30 19:51 67.60528 78.73715 35993 ft 514 kts
2026-04-30 19:52 67.67670 78.74877 35989 ft 514 kts
2026-04-30 19:52 67.74807 78.76142 35985 ft 514 kts
2026-04-30 19:53 67.81943 78.77470 35987 ft 514 kts
2026-04-30 19:53 67.89076 78.78814 35983 ft 514 kts
2026-04-30 19:54 67.96209 78.80164 35980 ft 514 kts
2026-04-30 19:54 68.03340 78.81518 35980 ft 514 kts
2026-04-30 19:55 68.10475 78.82879 35981 ft 513 kts
2026-04-30 19:55 68.17608 78.84247 35981 ft 514 kts
2026-04-30 19:56 68.24693 78.85754 35980 ft 514 kts
2026-04-30 19:56 68.31814 78.87535 35980 ft 514 kts
2026-04-30 19:57 68.38936 78.89330 35979 ft 514 kts
2026-04-30 19:57 68.46059 78.91093 35977 ft 514 kts
2026-04-30 19:58 68.53189 78.92850 35978 ft 514 kts
2026-04-30 19:58 68.60264 78.94598 35981 ft 514 kts
2026-04-30 19:59 68.67383 78.96368 35981 ft 514 kts
2026-04-30 20:00 68.78074 78.99050 35986 ft 514 kts
2026-04-30 20:00 68.85204 79.00854 35978 ft 514 kts
2026-04-30 20:01 68.95884 79.03567 35983 ft 514 kts
2026-04-30 20:01 69.03003 79.05410 35982 ft 514 kts
2026-04-30 20:02 69.13683 79.08177 35983 ft 514 kts
2026-04-30 20:03 69.24313 79.10949 35981 ft 513 kts
2026-04-30 20:03 69.31430 79.12822 35985 ft 513 kts
2026-04-30 20:04 69.38547 79.14712 35977 ft 513 kts
2026-04-30 20:05 69.49217 79.17567 35987 ft 513 kts
2026-04-30 20:05 69.59883 79.20448 35989 ft 513 kts
2026-04-30 20:06 69.66992 79.22382 35990 ft 514 kts
2026-04-30 20:06 69.74125 79.24343 35988 ft 516 kts
2026-04-30 20:07 69.81289 79.26325 35989 ft 517 kts
2026-04-30 20:08 69.92021 79.29232 35988 ft 518 kts
2026-04-30 20:08 69.99221 79.30857 35991 ft 519 kts
2026-04-30 20:09 70.06421 79.32466 35993 ft 519 kts
2026-04-30 20:09 70.17236 79.34991 35995 ft 520 kts
2026-04-30 20:10 70.28052 79.37581 35996 ft 520 kts
2026-04-30 20:11 70.38871 79.40199 35994 ft 520 kts
2026-04-30 20:11 70.46031 79.41944 35996 ft 520 kts
2026-04-30 20:12 70.56854 79.44604 35992 ft 520 kts
2026-04-30 20:13 70.64060 79.46391 35996 ft 520 kts
2026-04-30 20:13 70.71267 79.48192 35994 ft 520 kts
2026-04-30 20:14 70.78473 79.50007 35992 ft 519 kts
2026-04-30 20:14 70.85678 79.51836 35998 ft 519 kts
2026-04-30 20:15 70.92890 79.53677 35997 ft 519 kts
2026-04-30 20:15 71.00056 79.55519 36002 ft 519 kts
2026-04-30 20:16 71.07261 79.57482 35998 ft 519 kts
2026-04-30 20:16 71.14448 79.59645 36001 ft 519 kts
2026-04-30 20:17 71.21642 79.61835 35997 ft 519 kts
2026-04-30 20:17 71.28841 79.64015 36005 ft 519 kts
2026-04-30 20:18 71.34816 79.65827 36003 ft 519 kts
2026-04-30 20:18 71.42010 79.68019 36002 ft 519 kts
2026-04-30 20:19 71.49197 79.70224 36006 ft 519 kts
2026-04-30 20:19 71.56383 79.72448 36007 ft 519 kts
2026-04-30 20:20 71.63562 79.74685 36005 ft 519 kts
2026-04-30 20:20 71.70750 79.76943 36008 ft 519 kts
2026-04-30 20:21 71.77938 79.79218 36010 ft 519 kts
2026-04-30 20:21 71.85127 79.81509 36009 ft 518 kts
2026-04-30 20:22 71.92306 79.83819 36016 ft 518 kts
2026-04-30 20:22 71.99430 79.86126 36020 ft 518 kts
2026-04-30 20:23 72.06603 79.88469 36021 ft 518 kts
2026-04-30 20:23 72.13772 79.90825 36020 ft 518 kts
2026-04-30 20:24 72.20941 79.93200 36020 ft 518 kts
2026-04-30 20:24 72.28109 79.95593 36021 ft 517 kts 10°
2026-04-30 20:25 72.38858 79.99222 36026 ft 517 kts 10°
2026-04-30 20:26 72.49609 80.02894 36030 ft 517 kts 10°
2026-04-30 20:26 72.60312 80.06591 36035 ft 517 kts 10°
2026-04-30 20:27 72.74633 80.11610 36036 ft 517 kts 10°
2026-04-30 20:28 72.88956 80.16714 36042 ft 517 kts 10°
2026-04-30 20:30 73.06790 80.23186 36052 ft 517 kts 10°
2026-04-30 20:31 73.28251 80.31147 36055 ft 517 kts 10°
2026-04-30 20:32 73.46126 80.37939 36068 ft 516 kts 10°
2026-04-30 20:33 73.56832 80.37668 36074 ft 517 kts 358°
2026-04-30 20:34 73.67554 80.33086 36072 ft 517 kts 356°
2026-04-30 20:35 73.78271 80.28109 36082 ft 517 kts 356°
2026-04-30 20:35 73.88977 80.23117 36083 ft 517 kts 356°
2026-04-30 20:36 73.96108 80.19749 36084 ft 517 kts 356°
2026-04-30 20:37 74.06768 80.14676 36092 ft 517 kts 356°
2026-04-30 20:37 74.13894 80.11254 36094 ft 517 kts 356°
2026-04-30 20:38 74.21023 80.07793 36095 ft 516 kts 356°
2026-04-30 20:38 74.28147 80.04304 36096 ft 516 kts 356°
2026-04-30 20:39 74.38841 79.99009 36099 ft 516 kts 356°
2026-04-30 20:40 74.49518 79.93654 36104 ft 516 kts 356°
2026-04-30 20:40 74.56590 79.90062 36109 ft 516 kts 356°
2026-04-30 20:41 74.67260 79.84588 36109 ft 515 kts 356°
2026-04-30 20:41 74.74363 79.80899 36114 ft 515 kts 356°
2026-04-30 20:42 74.81465 79.77182 36120 ft 515 kts 356°
2026-04-30 20:43 74.92101 79.71545 36121 ft 514 kts 356°
2026-04-30 20:43 74.99192 79.67742 36121 ft 514 kts 356°
2026-04-30 20:44 75.09814 79.61987 36126 ft 513 kts 356°
2026-04-30 20:45 75.23966 79.54192 36131 ft 513 kts 356°
2026-04-30 20:45 75.31032 79.50246 36136 ft 513 kts 355°
2026-04-30 20:46 75.45110 79.42235 36137 ft 512 kts 355°
2026-04-30 20:47 75.55694 79.36123 36143 ft 512 kts 355°
2026-04-30 20:48 75.66264 79.29933 36145 ft 512 kts 355°
2026-04-30 20:48 75.73317 79.25752 36151 ft 511 kts 355°
2026-04-30 20:49 75.80312 79.21563 36152 ft 511 kts 355°
2026-04-30 20:50 75.90871 79.15162 36153 ft 511 kts 355°
2026-04-30 20:50 75.97902 79.10850 36156 ft 511 kts 355°
2026-04-30 20:51 76.04929 79.06496 36158 ft 511 kts 355°
2026-04-30 20:51 76.15411 78.99899 36161 ft 503 kts 355°
2026-04-30 20:52 76.22343 78.95493 36165 ft 504 kts 355°
2026-04-30 20:53 76.32762 78.88803 36168 ft 505 kts 355°
2026-04-30 20:53 76.39658 78.84327 36170 ft 505 kts 355°
2026-04-30 20:54 76.50079 78.77454 36178 ft 505 kts 355°
2026-04-30 20:55 76.60494 78.70477 36178 ft 505 kts 355°
2026-04-30 20:55 76.67429 78.65765 36182 ft 505 kts 354°
2026-04-30 20:56 76.77845 78.58565 36184 ft 504 kts 354°
2026-04-30 20:57 76.88253 78.51265 36187 ft 505 kts 354°
2026-04-30 20:57 76.95181 78.46344 36191 ft 505 kts 354°
2026-04-30 20:58 77.05540 78.38886 36194 ft 505 kts 354°
2026-04-30 20:58 77.12473 78.33830 36193 ft 505 kts 354°
2026-04-30 20:59 77.22868 78.26147 36198 ft 505 kts 354°
2026-04-30 21:00 77.36736 78.15693 36201 ft 505 kts 354°
2026-04-30 21:01 77.47136 78.07692 36211 ft 505 kts 354°
2026-04-30 21:02 77.57529 77.99580 36209 ft 505 kts 354°
2026-04-30 21:02 77.64456 77.94100 36217 ft 505 kts 354°
2026-04-30 21:03 77.71385 77.88557 36213 ft 505 kts 354°
2026-04-30 21:03 77.78311 77.82950 36217 ft 505 kts 354°
2026-04-30 21:04 77.85180 77.77323 36217 ft 505 kts 354°
2026-04-30 21:04 77.95558 77.68710 36217 ft 504 kts 354°
2026-04-30 21:05 78.02477 77.62884 36220 ft 504 kts 354°
2026-04-30 21:05 78.09392 77.56990 36222 ft 504 kts 354°
2026-04-30 21:06 78.16301 77.51029 36223 ft 504 kts 354°
2026-04-30 21:06 78.22039 77.46024 36226 ft 504 kts 354°
2026-04-30 21:07 78.28951 77.39932 36227 ft 504 kts 354°
2026-04-30 21:07 78.35858 77.33771 36216 ft 506 kts 354°
2026-04-30 21:08 78.42799 77.27514 36190 ft 508 kts 354°
2026-04-30 21:08 78.49763 77.21152 36159 ft 509 kts 354°
2026-04-30 21:09 78.56724 77.14710 36160 ft 509 kts 354°
2026-04-30 21:09 78.63687 77.08197 36162 ft 509 kts 353°
2026-04-30 21:10 78.70639 77.01618 36158 ft 509 kts 353°
2026-04-30 21:10 78.77608 76.95247 36033 ft 509 kts 356°
2026-04-30 21:11 78.81110 76.92319 35875 ft 510 kts 356°
2026-04-30 21:11 78.84612 76.89296 35756 ft 510 kts 356°
2026-04-30 21:11 78.91596 76.82804 35605 ft 509 kts 355°
2026-04-30 21:12 78.98518 76.75964 35446 ft 509 kts 354°
2026-04-30 21:12 79.05477 76.68916 35286 ft 509 kts 354°
2026-04-30 21:13 79.12424 76.61799 35150 ft 509 kts 354°
2026-04-30 21:13 79.19176 76.53763 35517 ft 500 kts 345°
2026-04-30 21:14 79.22504 76.48860 36013 ft 493 kts 345°
2026-04-30 21:14 79.25821 76.44172 36217 ft 493 kts 346°
2026-04-30 21:14 79.32505 76.35874 36239 ft 499 kts 348°
2026-04-30 21:15 79.39357 76.28349 36240 ft 505 kts 349°
2026-04-30 21:15 79.46268 76.20930 36241 ft 507 kts 349°
2026-04-30 21:16 79.53192 76.13353 36239 ft 506 kts 349°
2026-04-30 21:16 79.60096 76.05628 36242 ft 506 kts 349°
2026-04-30 21:17 79.66990 75.97789 36240 ft 505 kts 348°
2026-04-30 21:17 79.73837 75.89896 36237 ft 505 kts 348°
2026-04-30 21:18 79.80721 75.81859 36238 ft 505 kts 348°
2026-04-30 21:18 79.87607 75.73711 36239 ft 505 kts 348°
2026-04-30 21:19 79.94484 75.65461 36238 ft 505 kts 348°
2026-04-30 21:19 80.01356 75.57102 36236 ft 504 kts 348°
2026-04-30 21:20 80.08174 75.48690 36235 ft 504 kts 348°
2026-04-30 21:20 80.15041 75.40101 36232 ft 504 kts 348°
2026-04-30 21:21 80.21898 75.31402 36235 ft 504 kts 348°
2026-04-30 21:22 80.32179 75.18126 36230 ft 504 kts 347°
2026-04-30 21:23 80.45876 74.99986 36227 ft 504 kts 347°
2026-04-30 21:23 80.56096 74.86102 36224 ft 504 kts 347°
2026-04-30 21:24 80.62930 74.76648 36224 ft 504 kts 347°
2026-04-30 21:24 80.69766 74.67049 36220 ft 504 kts 347°
2026-04-30 21:25 80.80015 74.52389 36223 ft 503 kts 346°
2026-04-30 21:26 80.90216 74.37456 36219 ft 503 kts 346°
2026-04-30 21:27 81.00446 74.22137 36217 ft 504 kts 346°
2026-04-30 21:27 81.07271 74.11722 36214 ft 504 kts 346°
2026-04-30 21:28 81.17513 73.95803 36212 ft 504 kts 348°
2026-04-30 21:29 81.27800 73.80930 36209 ft 505 kts 348°
2026-04-30 21:30 81.44873 73.53389 36203 ft 505 kts 347°
2026-04-30 21:31 81.61880 73.24209 36196 ft 506 kts 347°
2026-04-30 21:32 81.72113 73.06099 36192 ft 506 kts 346°
2026-04-30 21:32 81.78933 72.93785 36187 ft 506 kts 351°
2026-04-30 21:33 81.89215 72.77987 36176 ft 502 kts 352°
2026-04-30 21:34 81.95994 72.66348 36176 ft 501 kts 350°
2026-04-30 21:34 82.06043 72.47377 36178 ft 500 kts 349°
2026-04-30 21:35 82.12774 72.34593 36172 ft 499 kts 349°
2026-04-30 21:35 82.19489 72.21674 36165 ft 499 kts 349°
2026-04-30 21:36 82.26203 72.08524 36163 ft 499 kts 349°
2026-04-30 21:37 82.39603 71.81482 36157 ft 499 kts 349°
2026-04-30 21:37 82.46295 71.67604 36155 ft 499 kts 349°
2026-04-30 21:38 82.52995 71.53480 36148 ft 499 kts 348°
2026-04-30 21:38 82.59685 71.39079 36147 ft 499 kts 348°
2026-04-30 21:39 82.66327 71.24537 36141 ft 499 kts 348°
2026-04-30 21:39 82.73011 71.09625 36137 ft 499 kts 348°
2026-04-30 21:40 82.79624 70.94563 36140 ft 499 kts 348°
2026-04-30 21:40 82.86299 70.79105 36133 ft 499 kts 347°
2026-04-30 21:41 82.92969 70.63327 36129 ft 500 kts 347°
2026-04-30 21:41 82.99640 70.47275 36130 ft 500 kts 347°
2026-04-30 21:42 83.06305 70.31032 36137 ft 500 kts 349°
2026-04-30 21:42 83.13083 70.17947 36119 ft 500 kts 351°
2026-04-30 21:43 83.19836 70.03826 36117 ft 500 kts 348°
2026-04-30 21:43 83.26510 69.87326 36118 ft 499 kts 347°
2026-04-30 21:44 83.33134 69.69619 36114 ft 499 kts 346°
2026-04-30 21:44 83.39758 69.51402 36107 ft 499 kts 346°
2026-04-30 21:45 83.46327 69.33100 36105 ft 499 kts 346°
2026-04-30 21:45 83.52929 69.14339 36104 ft 499 kts 346°
2026-04-30 21:46 83.59537 68.95153 36102 ft 499 kts 346°
2026-04-30 21:46 83.66124 68.75593 36096 ft 499 kts 345°
2026-04-30 21:47 83.72708 68.55632 36085 ft 499 kts 345°
2026-04-30 21:47 83.79296 68.35222 36085 ft 499 kts 345°
2026-04-30 21:48 83.85868 68.14417 36100 ft 499 kts 345°
2026-04-30 21:48 83.92438 67.93149 36086 ft 499 kts 345°
2026-04-30 21:49 83.98999 67.71402 36086 ft 499 kts 344°
2026-04-30 21:49 84.05505 67.49351 36089 ft 499 kts 344°
2026-04-30 21:50 84.12049 67.26638 36086 ft 499 kts 344°
2026-04-30 21:50 84.18579 67.03445 36079 ft 499 kts 343°
2026-04-30 21:51 84.25109 66.79701 36078 ft 499 kts 343°
2026-04-30 21:51 84.31625 66.55402 36077 ft 500 kts 343°
2026-04-30 21:52 84.38142 66.30493 36077 ft 500 kts 343°
2026-04-30 21:52 84.44630 66.05077 36069 ft 500 kts 342°
2026-04-30 21:53 84.51121 65.79005 36073 ft 500 kts 342°
2026-04-30 21:53 84.57597 65.52318 36069 ft 500 kts 342°
2026-04-30 21:54 84.64066 65.24979 36066 ft 500 kts 341°
2026-04-30 21:54 84.70485 64.97121 36063 ft 500 kts 341°
2026-04-30 21:55 84.76929 64.68352 36060 ft 501 kts 341°
2026-04-30 21:55 84.83374 64.38847 36058 ft 501 kts 340°
2026-04-30 21:56 84.89799 64.08670 36054 ft 501 kts 340°
2026-04-30 21:56 84.96214 63.77707 36051 ft 501 kts 340°
2026-04-30 21:57 85.02612 63.45949 36049 ft 501 kts 340°
2026-04-30 21:57 85.07915 63.18972 36042 ft 501 kts 339°
2026-04-30 21:58 85.14287 62.85627 36043 ft 501 kts 339°
2026-04-30 21:58 85.20645 62.51391 36041 ft 502 kts 339°
2026-04-30 21:59 85.26983 62.16338 36041 ft 502 kts 338°
2026-04-30 22:00 85.36465 61.61905 36034 ft 502 kts 338°
2026-04-30 22:00 85.45859 61.05475 36022 ft 501 kts 337°
2026-04-30 22:01 85.52119 60.66386 36028 ft 501 kts 336°
2026-04-30 22:01 85.58343 60.26238 36026 ft 501 kts 336°
2026-04-30 22:02 85.64562 59.84906 36014 ft 501 kts 336°
2026-04-30 22:02 85.70746 59.42440 36013 ft 500 kts 335°
2026-04-30 22:03 85.76893 58.98776 36012 ft 500 kts 335°
2026-04-30 22:03 85.83023 58.53772 35996 ft 500 kts 334°
2026-04-30 22:04 85.89127 58.07476 36004 ft 500 kts 334°
2026-04-30 22:05 85.98213 57.35412 35994 ft 499 kts 333°
2026-04-30 22:05 86.04229 56.85610 35992 ft 499 kts 333°
2026-04-30 22:06 86.10224 56.34242 35985 ft 499 kts 332°
2026-04-30 22:06 86.19137 55.54331 35979 ft 499 kts 331°
2026-04-30 22:07 86.23214 55.16284 35981 ft 499 kts 331°
2026-04-30 22:07 86.29086 54.59743 35974 ft 498 kts 330°
2026-04-30 22:08 86.34914 54.01534 35972 ft 498 kts 330°
2026-04-30 22:08 86.40706 53.41325 35969 ft 498 kts 329°
2026-04-30 22:09 86.46449 52.79270 35968 ft 497 kts 328°
2026-04-30 22:09 86.52144 52.15255 35963 ft 497 kts 328°
2026-04-30 22:10 86.57800 51.49015 35960 ft 497 kts 327°
2026-04-30 22:10 86.63393 50.80750 35953 ft 496 kts 327°
2026-04-30 22:11 86.71689 49.74101 35948 ft 496 kts 325°
2026-04-30 22:12 86.77137 49.00123 35943 ft 495 kts 324°
2026-04-30 22:12 86.82549 48.23377 35942 ft 495 kts 324°
2026-04-30 22:13 86.87886 47.44307 35936 ft 495 kts 323°
2026-04-30 22:13 86.93133 46.62845 35934 ft 495 kts 322°
2026-04-30 22:14 86.98340 45.78220 35931 ft 494 kts 321°
2026-04-30 22:14 87.03476 44.90751 35925 ft 494 kts 321°
2026-04-30 22:15 87.08536 44.00238 35921 ft 494 kts 320°
2026-04-30 22:15 87.13517 43.06612 35916 ft 494 kts 319°
2026-04-30 22:16 87.18425 42.09649 35911 ft 493 kts 317°
2026-04-30 22:17 87.27965 40.05826 35903 ft 493 kts 315°
2026-04-30 22:17 87.34882 38.43463 35900 ft 492 kts 314°
2026-04-30 22:18 87.41536 36.73668 35892 ft 492 kts 312°
2026-04-30 22:19 87.47960 34.94725 35885 ft 491 kts 310°
2026-04-30 22:20 87.54134 33.06477 35882 ft 491 kts 309°
2026-04-30 22:20 87.59999 31.09808 35882 ft 490 kts 307°
2026-04-30 22:21 87.63776 29.72124 35874 ft 490 kts 305°
2026-04-30 22:21 87.67361 28.32171 35873 ft 489 kts 304°
2026-04-30 22:22 87.70820 26.87214 35868 ft 489 kts 302°
2026-04-30 22:22 87.74134 25.37618 35869 ft 488 kts 301°
2026-04-30 22:23 87.77288 23.83916 35862 ft 488 kts 299°
2026-04-30 22:23 87.80269 22.26324 35859 ft 488 kts 297°
2026-04-30 22:24 87.83087 20.63982 35842 ft 487 kts 296°
2026-04-30 22:24 87.85695 18.99562 35843 ft 487 kts 294°
2026-04-30 22:25 87.88141 17.29910 35857 ft 486 kts 292°
2026-04-30 22:25 87.90387 15.57292 35854 ft 485 kts 291°
2026-04-30 22:26 87.93398 12.90779 35846 ft 485 kts 288°
2026-04-30 22:27 87.95147 11.09772 35848 ft 485 kts 287°
2026-04-30 22:27 87.97376 8.33132 35844 ft 484 kts 284°
2026-04-30 22:28 87.99126 5.50428 35842 ft 483 kts 281°
2026-04-30 22:29 88.00625 1.86991 35831 ft 483 kts 277°
2026-04-30 22:31 88.02719 -2.66902 35826 ft 484 kts 281°
2026-04-30 22:32 88.03930 -7.51752 35839 ft 483 kts 275°
2026-04-30 22:33 88.03939 -12.41364 35840 ft 482 kts 270°
2026-04-30 22:35 88.02531 -17.26850 35837 ft 482 kts 265°
2026-04-30 22:36 87.98797 -20.90158 35834 ft 470 kts 239°
2026-04-30 22:36 87.96866 -21.64513 35854 ft 468 kts 233°
2026-04-30 22:37 87.88100 -24.29626 35835 ft 469 kts 229°
2026-04-30 22:38 87.78967 -26.76765 35829 ft 470 kts 227°
2026-04-30 22:39 87.71877 -28.49982 35827 ft 470 kts 226°
2026-04-30 22:40 87.57135 -31.65067 35827 ft 472 kts 223°
2026-04-30 22:41 87.44288 -34.00425 35826 ft 472 kts 220°
2026-04-30 22:43 87.28344 -36.53028 35826 ft 474 kts 218°
2026-04-30 22:44 87.17413 -38.06128 35828 ft 474 kts 216°
2026-04-30 22:45 87.00751 -40.15807 35851 ft 478 kts 219°
2026-04-30 22:47 86.86162 -42.73195 35847 ft 481 kts 226°
2026-04-30 22:48 86.77023 -44.20419 35857 ft 482 kts 224°
2026-04-30 22:49 86.61569 -46.43444 35873 ft 482 kts 221°
2026-04-30 22:51 86.45649 -48.47006 35897 ft 483 kts 219°
2026-04-30 22:52 86.37521 -49.42241 35904 ft 483 kts 218°
2026-04-30 22:53 86.26570 -50.62414 35917 ft 483 kts 217°
2026-04-30 22:53 86.18200 -51.48343 35931 ft 484 kts 216°
2026-04-30 22:55 86.04071 -52.83691 35948 ft 485 kts 215°
2026-04-30 22:56 85.92607 -53.85175 35951 ft 485 kts 214°
2026-04-30 22:57 85.78100 -55.04478 35979 ft 485 kts 213°
2026-04-30 22:58 85.66362 -55.94230 35997 ft 486 kts 212°
2026-04-30 22:59 85.48591 -57.19906 36027 ft 486 kts 211°